Everett, WA

8:14 AM PST on December 10, 2019 (GMT -0800)
Snohomish County

Weather History for KPAE - October, 2019

Change the Weather History Date:

Thursday, October 31, 2019

  Actual Average Record
Temperature  
Mean Temperature 44 °F -  
Max Temperature 50 °F 54 °F 73 °F (1958)
Min Temperature 37 °F 41 °F 27 °F (1951)
Degree Days  
Heating Degree Days 22    
Moisture  
Dew Point 30 °F    
Average Humidity 63    
Maximum Humidity 82    
Minimum Humidity 35    
Precipitation  
Precipitation 0.00 in - - ()
Sea Level Pressure  
Sea Level Pressure 30.38 in    
Wind  
Wind Speed 2 mph (NNE)    
Max Wind Speed 6 mph    
Max Gust Speed -    
Visibility 10 miles    
Events      
Averages and records for this station are not official NWS values.
T = Trace of Precipitation, MM = Missing Value Source: NWS Daily Summary

Daily Weather History Graph

Daily Weather History Graph

Search for Another Location

Airport or City:

Astronomy

Oct. 31, 2019 Rise Set
Actual Time 7:52 AM PDT 5:52 PM PDT
Civil Twilight 7:19 AM PDT 6:24 PM PDT
Nautical Twilight 6:43 AM PDT 7:01 PM PDT
Astronomical Twilight 6:07 AM PDT 7:37 PM PDT
Moon 11:59 AM PDT (10/31) 8:39 PM PDT (10/31)
Length of Visible Light 11h 05m
Length of Day
10h 00m
Waxing Crescent, 16% of the Moon is Illuminated
Oct 31
Waxing Crescent
Nov 4
First Quarter
Nov 12
Full
Nov 19
Last Quarter
Nov 26
New

Hourly Weather History & Observations

Time (PDT) Temp. Windchill Dew Point Humidity Pressure Visibility Wind Dir Wind Speed Gust Speed Precip Events Conditions
12:53 AM 37.0 °F - 32.0 °F 82% 30.34 in 10.0 mi Calm Calm - N/A   Clear
1:53 AM 37.0 °F - 28.0 °F 70% 30.34 in 10.0 mi Calm Calm - N/A   Clear
2:53 AM 37.9 °F 34.4 °F 27.0 °F 65% 30.35 in 10.0 mi NNE 4.6 mph - N/A   Clear
3:53 AM 39.0 °F 35.7 °F 32.0 °F 76% 30.34 in 10.0 mi East 4.6 mph - N/A   Clear
4:53 AM 37.9 °F - 28.9 °F 70% 30.35 in 10.0 mi Calm Calm - N/A   Clear
5:53 AM 39.0 °F 36.8 °F 28.9 °F 67% 30.34 in 10.0 mi SSE 3.5 mph - N/A   Clear
6:53 AM 37.9 °F - 28.0 °F 68% 30.35 in 10.0 mi Calm Calm - N/A   Clear
7:53 AM 37.0 °F 33.3 °F 28.0 °F 70% 30.36 in 10.0 mi Variable 4.6 mph - N/A   Clear
8:53 AM 37.9 °F - 28.9 °F 70% 30.37 in 10.0 mi Calm Calm - N/A   Clear
9:53 AM 42.1 °F - 30.9 °F 65% 30.38 in 10.0 mi Calm Calm - N/A   Clear
10:53 AM 43.0 °F - 34.0 °F 71% 30.39 in 10.0 mi Calm Calm - N/A   Clear
11:53 AM 44.1 °F 42.5 °F 30.9 °F 60% 30.39 in 10.0 mi West 3.5 mph - N/A   Clear
12:53 PM 46.0 °F - 32.0 °F 58% 30.39 in 10.0 mi Calm Calm - N/A   Mostly Cloudy
2:53 PM 48.0 °F - 28.0 °F 46% 30.38 in 10.0 mi NW 3.5 mph - N/A   Mostly Cloudy
3:53 PM 50.0 °F - 23.0 °F 35% 30.38 in 10.0 mi North 5.8 mph - N/A   Partly Cloudy
4:53 PM 48.9 °F - 28.0 °F 44% 30.38 in 10.0 mi North 3.5 mph - N/A   Clear
5:53 PM 45.0 °F - 28.9 °F 53% 30.39 in 10.0 mi Calm Calm - N/A   Clear
6:53 PM 44.1 °F 42.5 °F 25.0 °F 47% 30.40 in 10.0 mi NNE 3.5 mph - N/A   Clear
7:53 PM 42.1 °F - 28.9 °F 60% 30.40 in 10.0 mi Calm Calm - N/A   Clear
8:53 PM 42.1 °F 40.2 °F 30.9 °F 65% 30.41 in 10.0 mi North 3.5 mph - N/A   Clear
9:53 PM 42.1 °F 40.2 °F 34.0 °F 73% 30.43 in 10.0 mi NNE 3.5 mph - N/A   Clear
10:53 PM 43.0 °F 40.3 °F 33.1 °F 68% 30.44 in 10.0 mi NNE 4.6 mph - N/A   Clear
11:53 PM 41.0 °F - 32.0 °F 70% 30.44 in 10.0 mi Calm Calm - N/A   Clear